This is the latest recevied weather packets stored in our database for station/object DL2AMT-9. If no packets are shown the sender has not sent any weather packets the latest 10 day(s).
| Time | Temp. | Humidity | Pressure | Rain* | Wind** | Luminosity | Snow |
|---|---|---|---|---|---|---|---|
| 1788618310 | 31.11° C | 34% | 976.7 hPa | - | - | - | - |
| 1788618010 | 31.67° C | 34% | 976.6 hPa | - | - | - | - |
| 1788617710 | 31.67° C | 34% | 976.6 hPa | - | - | - | - |
| 1788617410 | 31.11° C | 34% | 976.6 hPa | - | - | - | - |
| 1788617110 | 31.67° C | 34% | 976.7 hPa | - | - | - | - |
| 1788616810 | 31.67° C | 34% | 976.6 hPa | - | - | - | - |
| 1788616510 | 31.67° C | 34% | 976.6 hPa | - | - | - | - |
| 1788616210 | 31.67° C | 34% | 976.5 hPa | - | - | - | - |
| 1788615910 | 31.11° C | 34% | 976.4 hPa | - | - | - | - |
| 1788615610 | 31.67° C | 33% | 976.5 hPa | - | - | - | - |
| 1788615310 | 31.67° C | 34% | 976.4 hPa | - | - | - | - |
| 1788615010 | 31.67° C | 33% | 976.4 hPa | - | - | - | - |
| 1788614709 | 31.67° C | 33% | 976.4 hPa | - | - | - | - |
| 1788614409 | 32.22° C | 33% | 976.4 hPa | - | - | - | - |
| 1788614109 | 32.22° C | 33% | 976.3 hPa | - | - | - | - |
| 1788613809 | 32.78° C | 33% | 976.4 hPa | - | - | - | - |
| 1788613509 | 32.78° C | 33% | 976.4 hPa | - | - | - | - |
| 1788613209 | 33.33° C | 33% | 976.3 hPa | - | - | - | - |
| 1788612903 | 32.78° C | 33% | 976.4 hPa | - | - | - | - |
| 1788612603 | 33.89° C | 33% | 976.1 hPa | - | - | - | - |
| 1788612303 | 33.89° C | 33% | 976.4 hPa | - | - | - | - |
| 1788612003 | 34.44° C | 34% | 976.3 hPa | - | - | - | - |
| 1788611703 | 34.44° C | 34% | 976.2 hPa | - | - | - | - |
| 1788611403 | 33.89° C | 35% | 976.2 hPa | - | - | - | - |
| 1788611103 | 32.78° C | 36% | 976.2 hPa | - | - | - | - |
* Rain since midnight (hover to see other rain measurements)
** Current wind speed in m/s (hover to see current wind gust speed)